Terminal Aerodrome Forecast
Issued by NWS Sterling, VA

Current Version | Previous Version | Graphics & Text | Print | Product List | Glossary On
Versions: 1 2 3 4 5 6 7 8 9 10 11 12 13 14 15 16 17 18 19 20 21 22 23 24 25
000
FTUS41 KLWX 240700 AAA
TAFDCA
TAF AMD
KDCA 240753Z 2408/2506 34004KT P6SM BKN120 BKN150
     FM240900 32008KT P6SM -SHRA BKN080 OVC120
     FM241400 36010KT P6SM SCT060 BKN100
     FM250300 35007KT P6SM SCT040 SCT100=

USA.gov is the U.S. government's official web portal to all federal, state and local government web resources and services.